Fredericksburg, VA

12:49 AM EST on November 17, 2019 (GMT -0500)
Shannon

Weather History for KEZF - October, 2019

Change the Weather History Date:

Tuesday, October 22, 2019

  Actual Average (WUND) Record (WUND)
Temperature  
Mean Temperature 58 °F -  
Max Temperature 61 °F - - (-1)
Min Temperature 56 °F - - (-1)
Degree Days  
Heating Degree Days 6    
Growing Degree Days 8 (Base 50)    
Moisture  
Dew Point 58 °F    
Average Humidity 99    
Maximum Humidity 100    
Minimum Humidity 91    
Precipitation  
Precipitation 0.21 in - - ()
Sea Level Pressure  
Sea Level Pressure 29.92 in    
Wind  
Wind Speed 4 mph ()    
Max Wind Speed 15 mph    
Max Gust Speed 18 mph    
Visibility 8.2 miles    
Events Fog , Rain    
Averages and records for this station are not official NWS values.
T = Trace of Precipitation, MM = Missing Value Source: Averaged Metar Reports

Daily Weather History Graph

Daily Weather History Graph

Search for Another Location

Airport or City:

Astronomy

Oct. 22, 2019 Rise Set
Actual Time 7:25 AM EDT 6:22 PM EDT
Civil Twilight 6:58 AM EDT 6:49 PM EDT
Nautical Twilight 6:27 AM EDT 7:20 PM EDT
Astronomical Twilight 5:56 AM EDT 7:50 PM EDT
Moon 12:39 AM EDT (10/22) 3:23 PM EDT (10/22)
Length of Visible Light 11h 51m
Length of Day
10h 57m
Last Quarter, 37% of the Moon is Illuminated
Oct 22
Last Quarter
Oct 27
New
Nov 4
First Quarter
Nov 12
Full
Nov 19
Last Quarter

Hourly Weather History & Observations

Time (EDT) Temp. Dew Point Humidity Pressure Visibility Wind Dir Wind Speed Gust Speed Precip Events Conditions
12:15 AM 56.3 °F 55.6 °F 97% 30.08 in 10.0 mi Calm Calm - N/A   Overcast
12:35 AM 56.3 °F 55.6 °F 97% 30.06 in 10.0 mi South 3.5 mph - N/A   Overcast
12:55 AM 56.7 °F 55.8 °F 97% 30.06 in 10.0 mi SSE 3.5 mph - N/A   Overcast
1:35 AM 56.8 °F 56.3 °F 98% 30.07 in 10.0 mi South 3.5 mph - N/A   Overcast
1:55 AM 57.2 °F 56.3 °F 97% 30.07 in 10.0 mi South 4.6 mph - N/A   Overcast
2:15 AM 57.2 °F 56.3 °F 97% 30.06 in 10.0 mi Calm Calm - N/A   Overcast
2:35 AM 57.2 °F 56.3 °F 97% 30.06 in 10.0 mi SSW 3.5 mph - N/A   Overcast
2:55 AM 57.2 °F 56.3 °F 97% 30.06 in 10.0 mi South 5.8 mph - N/A   Overcast
3:15 AM 57.2 °F 56.3 °F 97% 30.04 in 10.0 mi SE 4.6 mph - N/A   Overcast
3:35 AM 57.2 °F 56.5 °F 97% 30.03 in 10.0 mi SSE 3.5 mph - N/A   Overcast
3:55 AM 57.0 °F 56.5 °F 98% 30.01 in 10.0 mi SSE 5.8 mph - N/A   Overcast
4:15 AM 56.8 °F 56.5 °F 99% 30.01 in 10.0 mi SSE 4.6 mph - N/A   Overcast
4:35 AM 56.8 °F 56.7 °F 99% 30.00 in 10.0 mi SSE 5.8 mph - N/A   Overcast
4:55 AM 57.2 °F 56.7 °F 98% 30.00 in 10.0 mi SSE 5.8 mph - N/A   Overcast
5:15 AM 57.2 °F 56.7 °F 98% 30.01 in 10.0 mi SSE 5.8 mph - N/A   Overcast
5:35 AM 57.2 °F 56.7 °F 98% 30.01 in 10.0 mi SSE 5.8 mph - N/A   Overcast
5:55 AM 56.7 °F 56.7 °F 100% 30.00 in 5.0 mi SSE 6.9 mph - N/A   Overcast
6:15 AM 56.5 °F 56.5 °F 100% 29.99 in 5.0 mi SSE 6.9 mph - N/A   Overcast
6:35 AM 56.5 °F 56.5 °F 100% 30.01 in 5.0 mi South 4.6 mph - N/A   Overcast
6:55 AM 56.7 °F 56.7 °F 100% 29.99 in 4.0 mi SSE 3.5 mph - N/A   Overcast
7:15 AM 56.7 °F 56.7 °F 100% 30.00 in 4.0 mi South 4.6 mph - N/A   Overcast
7:35 AM 56.7 °F 56.7 °F 100% 30.01 in 4.0 mi SSW 3.5 mph - N/A   Overcast
8:35 AM 57.2 °F 57.2 °F 100% 30.00 in 3.0 mi SE 3.5 mph - N/A   Overcast
8:55 AM 57.2 °F 57.2 °F 100% 29.98 in 4.0 mi ESE 3.5 mph - N/A   Overcast
9:15 AM 57.6 °F 57.6 °F 100% 29.97 in 3.0 mi SE 5.8 mph - N/A   Overcast
9:35 AM 57.9 °F 57.9 °F 100% 29.97 in 7.0 mi ESE 3.5 mph - N/A   Overcast
9:55 AM 58.5 °F 58.3 °F 99% 29.97 in 10.0 mi SSE 6.9 mph - N/A   Overcast
10:15 AM 58.5 °F 58.3 °F 99% 29.96 in 10.0 mi SE 5.8 mph - N/A   Overcast
10:35 AM 58.6 °F 58.3 °F 99% 29.95 in 10.0 mi ESE 4.6 mph - N/A   Overcast
10:55 AM 59.0 °F 58.5 °F 98% 29.95 in 10.0 mi ESE 4.6 mph - N/A   Overcast
11:15 AM 59.0 °F 58.5 °F 98% 29.95 in 10.0 mi SE 5.8 mph - N/A   Overcast
11:35 AM 59.7 °F 58.5 °F 96% 29.93 in 10.0 mi ESE 6.9 mph - N/A   Overcast
11:55 AM 60.3 °F 58.6 °F 94% 29.92 in 10.0 mi ESE 5.8 mph - N/A   Overcast
12:15 PM 61.0 °F 58.8 °F 93% 29.91 in 10.0 mi SE 9.2 mph - N/A   Overcast
12:35 PM 61.2 °F 59.0 °F 93% 29.89 in 10.0 mi SE 4.6 mph - N/A   Overcast
12:55 PM 61.2 °F 59.0 °F 93% 29.87 in 10.0 mi SSE 10.4 mph - N/A   Overcast
1:15 PM 61.7 °F 59.2 °F 91% 29.86 in 10.0 mi SE 10.4 mph - N/A   Overcast
1:35 PM 61.7 °F 59.2 °F 91% 29.85 in 10.0 mi SE 8.1 mph - N/A   Overcast
2:15 PM 61.3 °F 60.8 °F 98% 29.81 in 7.0 mi ESE 3.5 mph - 0.01 in Rain Light Rain
2:35 PM 61.2 °F 60.8 °F 99% 29.80 in 10.0 mi SE 4.6 mph - 0.02 in   Drizzle
2:55 PM 61.2 °F 61.2 °F 100% 29.80 in 5.0 mi Calm Calm - 0.05 in Rain Light Rain
3:15 PM 61.2 °F 61.2 °F 100% 29.79 in 7.0 mi Calm Calm - 0.01 in Rain Rain
3:35 PM 61.2 °F 61.2 °F 100% 29.79 in 4.0 mi Calm Calm - 0.03 in Rain Rain
3:55 PM 61.0 °F 61.0 °F 100% 29.79 in 3.0 mi Calm Calm - 0.08 in Rain Light Rain
4:15 PM 61.2 °F 61.2 °F 100% 29.79 in 10.0 mi Calm Calm - N/A Rain Light Rain
4:35 PM 61.3 °F 61.3 °F 100% 29.82 in 7.0 mi WNW 15.0 mph 18.4 mph N/A Rain Rain
4:55 PM 60.8 °F 60.8 °F 100% 29.82 in 5.0 mi NW 11.5 mph - 0.04 in Rain Rain
5:15 PM 60.3 °F 60.3 °F 100% 29.82 in 5.0 mi NNW 4.6 mph - 0.02 in Rain Heavy Rain
5:55 PM 60.1 °F 60.1 °F 100% 29.79 in 10.0 mi ENE 4.6 mph - 0.04 in Rain Light Rain
6:15 PM 60.1 °F 60.1 °F 100% 29.79 in 10.0 mi Calm Calm - N/A   Overcast
6:35 PM 59.9 °F 59.9 °F 100% 29.79 in 10.0 mi Calm Calm - N/A   Overcast
6:55 PM 60.1 °F 60.1 °F 100% 29.81 in 10.0 mi Calm Calm - N/A Rain Rain
7:15 PM 59.9 °F 59.9 °F 100% 29.82 in 10.0 mi Calm Calm - N/A   Overcast
7:35 PM 59.9 °F 59.9 °F 100% 29.82 in 10.0 mi Calm Calm - N/A   Overcast
7:55 PM 59.7 °F 59.7 °F 100% 29.84 in 10.0 mi NW 3.5 mph - N/A   Overcast
8:15 PM 59.9 °F 59.9 °F 100% 29.85 in 10.0 mi WNW 6.9 mph - N/A   Overcast
8:35 PM 59.9 °F 59.9 °F 100% 29.86 in 10.0 mi WNW 5.8 mph - N/A   Overcast
8:55 PM 59.5 °F 59.5 °F 100% 29.86 in 10.0 mi NW 6.9 mph - N/A   Overcast
9:15 PM 59.4 °F 59.4 °F 100% 29.86 in 10.0 mi Calm Calm - N/A   Overcast
9:35 PM 58.6 °F 58.6 °F 100% 29.87 in 10.0 mi Calm Calm - N/A   Mostly Cloudy
9:55 PM 58.1 °F 58.1 °F 100% 29.88 in 10.0 mi Calm Calm - N/A   Mostly Cloudy
10:15 PM 57.4 °F 57.4 °F 100% 29.88 in 10.0 mi Calm Calm - N/A   Clear
10:35 PM 56.7 °F 56.7 °F 100% 29.88 in 10.0 mi WSW 4.6 mph - N/A   Scattered Clouds
11:15 PM 57.0 °F 57.0 °F 100% 29.88 in 1.0 mi Calm Calm - N/A   Overcast
11:35 PM 56.8 °F 56.8 °F 100% 29.87 in 0.8 mi West 3.5 mph - N/A   Overcast
11:55 PM 56.7 °F 56.7 °F 100% 29.87 in 0.5 mi West 3.5 mph - N/A Fog Fog